RH
43 58 63 64 66 68 64 67 70 66 72 72 79 83 81 89 83 86 89 85 82 82 86 86 86 87 79 91 94 96 95 94 96 78 77 75 93 98 95 92 78 70 76
52 64 63 61 63 55 61 60 70 73 69 76 80 85 91 82 81 84 81 78 80 80 79 80 80 66 84 86 93 92 95 94 96 94 77 79 82 81 82 84 69 60 72
53 49 47 53 52 50 52 52 63 73 73 79 86 88 88 82 78 79 82 83 81 82 86 87 87 87 89 94 94 94 94 94 94 96 96 92 93 86 83 86 89 92 87
41 45 53 53 53 46 51 59 58 80 85 91 88 84 83 81 84 85 82 85 86 85 90 89 86 87 88 91 90 93 92 95 95 96 96 95 92 91 94 94 92 95 94
60 63 65 63 61 68 77 72 84 83 85 86 86 82 79 81 81 91 90 80 84 85 82 84 80 81 78 84 84 88 91 91 96 98 98 96 96 95 95 97 97 97 94
61 62 72 76 79 77 86 91 90 90 85 87 83 84 84 68 94 96 93 87 84 84 85 85 84 86 85 86 88 90 94 95 95 98 98 98 95 96 96 96 97 96 94
75 73 79 80 82 91 87 88 86 86 86 85 87 85 83 81 96 97 91 83 83 86 86 86 83 76 85 86 87 90 92 95 97 96 98 96 96 97 95 95 96 98 98
77 82 81 84 87 88 86 87 86 84 85 86 83 84 84 84 97 95 93 83 80 81 82 81 81 83 91 93 90 86 86 86 88 89 90 89 90 91 91 95 98 98 91
89 91 91 90 89 86 86 84 83 82 82 82 80 83 85 87 97 94 93 77 80 82 81 84 81 82 97 98 91 88 81 84 90 89 90 92 94 92 90 90 96 95 93
89 89 88 85 84 82 83 84 83 82 81 72 81 83 84 85 99 96 93 75 75 72 83 83 95 91 99 97 89 83 86 85 88 85 87 92 86 83 88 90 88 88 83
80 86 82 80 82 82 83 82 83 82 82 84 83 83 83 87 86 92 92 76 74 69 67 74 77 98 99 98 99 83 87 89 85 84 88 82 82 83 84 86 88 87 91
78 78 80 80 64 72 83 84 83 84 85 84 86 78 74 82 96 95 90 92 91 73 69 74 83 100 98 98 93 94 90 89 84 84 92 84 86 84 91 96 91 91 89
77 78 77 76 75 78 82 84 78 85 71 73 71 65 68 67 74 85 87 88 89 77 71 83 86 94 97 94 98 90 91 78 82 81 85 94 94 94 88 94 90 90 90
77 77 74 73 76 74 69 69 70 63 69 57 61 61 63 66 69 74 75 77 88 84 80 80 81 85 94 90 82 82 78 76 82 86 86 88 88 92 93 82 86 82 85
76 69 66 61 71 73 78 77 63 76 76 68 66 63 65 65 74 91 87 75 76 87 89 82 83 86 85 84 81 74 76 79 82 84 81 87 88 88 88 86 92 80 86
65 58 53 52 57 56 63 69 98 95 99 100 100 79 69 91 100 100 100 100 100 100 82 86 83 78 73 70 70 76 77 80 82 78 82 78 80 77 82 82 90 94 83
60 58 45 50 42 52 54 55 61 82 100 100 100 100 98 90 100 100 100 100 100 96 77 80 77 75 76 70 70 67 72 75 80 85 81 79 77 76 77 80 81 89 93
61 59 48 45 58 52 49 52 46 58 62 66 93 88 99 100 100 100 100 96 69 85 69 62 75 75 73 75 76 71 72 77 78 78 80 79 79 80 82 78 71 77 82
59 46 46 37 44 51 44 45 40 58 52 53 64 85 93 100 100 100 100 75 63 58 54 58 70 67 73 78 76 75 73 73 77 83 74 76 75 74 74 71 66 72 77
54 68 59 45 42 39 37 34 45 50 46 46 53 53 61 78 69 70 74 68 66 47 50 55 62 69 75 73 79 74 71 77 75 71 71 75 75 73 72 68 63 71 76
40 44 58 38 53 32 30 32 36 42 43 38 50 51 66 61 49 49 64 56 63 47 57 55 58 67 71 66 74 70 64 61 66 66 70 72 73 70 72 73 69 67 67
38 40 42 40 40 44 37 31 32 35 34 33 42 57 76 45 36 39 60 47 54 52 49 56 50 49 52 55 58 57 64 65 66 67 69 71 71 65 64 68 64 71 67
35 35 35 38 39 48 39 32 36 33 32 32 29 37 41 38 45 47 38 38 45 43 50 49 51 47 50 47 50 52 58 63 63 62 65 70 70 70 69 65 66 68 68
28 28 31 30 38 36 32 34 32 40 33 31 32 37 36 34 34 47 37 37 42 40 41 50 52 44 57 49 50 52 58 59 58 60 61 70 68 72 68 73 69 61 65
27 26 30 35 37 36 36 31 36 30 29 30 29 28 28 32 34 36 36 41 42 42 42 43 46 50 48 52 50 59 82 100 72 93 68 64 65 71 70 69 69 62 62
32 26 28 31 35 35 33 32 31 31 30 31 32 35 35 34 33 35 38 40 41 42 42 41 41 47 49 46 47 85 100 100 84 100 72 66 68 69 72 69 69 68 63
Wind_Speed
12 14 11 11 10 8 7 5 4 4 4 2 1 3 3 5 5 3 3 3 3 3 4 4 5 5 6 4 5 5 4 4 6 8 5 5 5 8 12 19 4 5 2
9 12 11 11 10 11 9 8 6 6 4 2 2 3 4 4 3 3 4 5 5 5 5 5 6 6 7 6 4 5 4 5 4 9 7 6 4 4 3 1 4 5 6
7 8 10 10 10 11 11 10 9 6 4 5 5 6 4 4 3 3 4 6 7 7 5 6 6 6 6 5 6 4 3 3 4 4 5 2 2 2 2 1 3 5 4
7 8 8 9 9 9 8 8 6 6 5 8 6 3 4 3 5 5 5 6 5 5 6 4 5 6 5 6 5 5 3 5 6 5 6 6 3 3 2 5 7 2 5
5 4 6 6 7 6 7 6 9 9 8 6 6 4 4 6 6 7 7 5 4 3 4 4 5 5 6 4 3 6 6 5 5 5 6 6 5 5 4 4 4 4 5
0 4 6 7 8 7 8 10 8 6 5 3 8 7 7 5 8 8 6 4 5 5 5 5 5 9 8 6 5 5 4 4 5 5 4 6 6 6 6 6 5 4 3
5 5 6 7 7 8 8 9 6 6 6 8 7 9 6 4 5 7 7 3 4 7 7 7 7 6 9 7 7 7 4 3 5 4 5 6 6 7 7 7 7 6 3
2 5 7 7 9 9 8 8 7 5 8 8 6 7 5 3 4 6 9 2 5 7 6 7 7 7 7 7 7 5 5 2 1 3 5 6 6 6 6 5 5 6 6
7 7 6 8 8 9 9 8 7 8 8 6 4 5 5 3 8 9 9 1 6 6 6 6 6 6 9 10 6 4 3 5 5 5 5 6 5 6 8 5 6 6 4
8 6 7 8 9 9 9 8 7 6 6 6 5 4 5 4 6 6 6 5 7 6 6 5 6 4 7 9 6 7 6 7 6 1 3 1 2 6 8 5 6 6 7
9 7 9 9 9 9 8 6 6 6 6 5 5 4 5 3 3 8 10 5 5 5 5 3 3 0 4 6 6 4 3 5 7 2 4 3 3 3 3 5 6 5 6
10 9 9 8 8 8 7 6 6 6 6 5 5 5 5 4 0 2 4 3 5 4 4 3 3 4 4 8 6 4 9 8 2 4 3 2 2 3 4 4 4 7 6
10 9 8 7 9 8 7 7 6 6 6 6 5 6 7 6 4 5 2 5 4 3 3 2 3 4 6 6 12 10 4 2 4 4 4 3 3 4 2 4 4 6 7
11 8 7 8 8 7 7 7 4 5 6 6 4 4 4 5 5 4 3 3 5 3 4 4 5 6 6 5 3 4 1 2 2 2 4 2 3 2 3 2 4 6 5
9 8 8 6 6 6 1 3 5 4 3 3 4 3 2 5 3 4 3 2 3 4 7 3 3 2 3 4 4 3 3 3 4 4 4 3 2 1 3 4 3 5 6
9 8 8 7 7 6 6 4 11 10 6 9 6 6 4 8 8 5 2 5 4 7 2 3 0 3 2 3 4 3 4 5 4 3 4 3 3 3 2 1 4 4 5
8 8 7 7 9 7 6 5 5 3 5 6 6 8 8 9 6 4 4 7 6 2 3 2 2 3 2 2 3 4 3 2 2 4 2 3 2 2 4 3 4 4 3
8 8 6 5 4 4 9 7 7 6 5 3 3 2 6 8 7 2 4 7 5 4 4 6 3 4 2 2 3 4 3 4 2 2 2 2 2 2 1 1 3 3 3
6 6 5 6 2 4 3 5 7 8 8 7 5 1 5 4 1 3 3 5 7 4 3 3 4 4 3 3 2 3 3 3 2 3 2 1 3 1 2 3 4 5 3
7 3 6 5 4 5 1 4 1 6 5 9 8 7 7 5 5 6 6 7 6 1 4 4 5 5 4 5 3 2 3 4 3 1 2 2 2 3 3 3 3 3 3
7 6 4 5 3 5 6 6 5 5 4 5 4 9 13 8 8 6 7 8 6 2 5 3 4 4 4 3 6 3 3 2 3 2 2 3 2 1 2 3 2 2 4
9 8 6 6 6 2 3 5 5 3 2 0 9 5 12 7 5 5 7 7 6 4 6 4 2 3 4 3 3 3 4 3 2 3 1 1 2 2 2 2 1 3 2
8 10 8 5 6 3 3 4 3 3 4 5 4 8 6 7 5 5 3 3 5 4 5 4 4 3 4 2 1 3 3 5 4 3 2 2 3 3 2 2 1 3 3
6 7 11 9 7 4 3 3 3 6 4 5 5 2 8 7 2 5 3 1 3 2 1 4 4 6 5 3 2 6 6 4 2 3 5 2 3 3 3 3 4 4 5
8 6 5 7 7 4 5 5 6 7 5 5 5 5 3 2 3 3 4 4 3 2 2 3 4 8 9 8 3 7 8 6 4 2 3 3 4 4 4 2 3 2 2
7 7 5 3 6 7 6 5 4 4 3 2 3 3 1 2 3 4 3 3 1 2 2 3 4 9 11 10 9 13 12 9 5 2 2 4 4 4 4 3 4 4 4
Wind_Direction
193 178 187 194 201 216 238 229 230 290 296 283 266 348 67 198 322 325 2 323 262 255 254 254 262 260 260 284 288 292 294 287 279 294 301 299 146 193 192 220 285 323 257
175 172 185 181 198 199 213 216 204 210 254 31 346 349 52 29 331 10 337 336 308 308 308 308 294 299 316 313 280 277 289 297 281 277 291 307 283 168 192 11 320 308 314
138 177 184 187 199 218 196 212 192 173 167 62 64 63 36 7 330 304 355 313 315 319 318 305 298 312 315 317 310 298 284 311 301 284 289 294 277 319 327 337 310 278 272
199 190 197 185 212 210 224 187 157 131 100 95 85 29 26 22 33 353 346 319 307 315 309 306 303 296 341 356 347 317 347 326 327 310 291 284 282 310 319 321 312 318 305
167 246 197 172 192 88 68 81 97 87 85 95 94 86 49 63 33 347 329 315 354 322 310 319 313 28 21 8 332 343 347 337 323 308 313 323 319 321 338 334 320 319 316
152 294 100 77 82 109 92 80 95 110 110 110 79 86 58 54 10 346 342 333 354 355 340 360 19 40 16 342 305 296 289 315 325 332 345 343 344 354 355 346 335 336 328
166 196 126 122 122 92 97 114 119 117 139 92 96 87 71 66 2 349 333 325 30 40 38 30 52 41 16 348 354 328 294 225 238 307 340 9 18 13 350 345 344 327 286
101 114 131 133 121 122 133 131 140 126 95 96 92 106 119 93 6 342 327 262 91 70 42 29 48 36 25 356 328 333 33 61 9 56 40 28 33 1 348 328 315 298 295
99 89 101 105 114 124 130 123 107 96 93 95 103 113 105 44 9 11 347 216 121 112 79 47 34 33 359 357 321 315 7 28 93 81 61 65 70 21 18 3 359 1 345
108 122 120 120 119 118 110 104 102 113 126 119 122 123 101 72 15 360 1 306 161 145 133 116 72 43 352 357 348 2 29 1 350 81 129 117 149 67 36 25 11 19 355
123 116 119 119 114 114 111 118 107 109 102 118 117 102 80 32 32 2 11 37 14 348 113 113 96 237 308 337 348 22 353 313 321 42 80 45 35 70 35 38 41 40 11
131 128 127 138 132 123 126 110 119 133 138 147 162 159 132 143 133 26 30 53 358 354 43 87 150 206 291 310 313 336 319 318 34 88 60 85 18 29 47 96 81 65 41
131 129 150 124 118 136 147 163 163 187 166 182 200 179 154 164 175 189 286 327 357 344 29 10 312 278 281 289 267 287 274 351 32 359 70 52 38 15 54 122 106 83 62
134 150 133 133 153 176 181 190 217 193 191 186 177 155 137 167 152 165 204 226 260 279 299 250 247 282 302 267 220 261 50 43 2 15 66 46 53 37 14 92 126 105 56
145 147 155 158 187 194 137 14 118 53 42 36 35 49 96 98 83 89 61 13 359 43 317 284 224 174 272 259 256 140 99 32 56 2 61 36 78 132 48 70 59 91 87
166 172 183 158 194 207 158 145 52 79 81 88 101 69 55 80 129 114 77 306 41 2 262 309 287 94 36 15 5 108 93 40 25 11 33 53 29 33 74 49 90 64 108
191 192 180 196 180 190 162 165 174 93 89 83 79 84 75 146 157 173 250 305 271 192 254 251 204 161 160 24 -0 54 78 82 11 12 47 354 60 29 27 28 92 109 122
225 200 235 206 230 165 162 183 190 159 173 172 197 162 145 160 180 225 346 324 280 192 227 256 201 150 172 145 330 77 27 70 57 322 54 333 68 335 64 214 102 103 115
218 232 213 228 241 112 225 192 182 162 170 170 148 173 162 134 152 257 273 253 281 308 164 54 124 133 158 135 165 101 101 100 4 327 342 314 98 94 324 49 98 89 68
218 259 251 248 160 171 153 259 183 154 152 178 175 178 156 138 215 216 216 243 255 238 79 29 155 166 172 154 189 156 178 158 150 327 39 65 65 16 356 328 74 146 118
188 201 226 263 250 193 196 215 239 179 187 220 132 162 176 197 231 213 193 221 232 145 107 79 311 145 156 148 159 201 140 68 142 177 200 171 154 300 304 326 19 122 137
188 172 192 230 271 247 247 207 200 156 254 117 145 160 180 217 249 262 190 231 165 168 147 178 132 56 110 130 207 126 152 179 115 116 73 253 190 154 285 331 82 94 132
235 161 170 203 252 266 251 268 334 191 192 193 192 167 190 228 237 239 119 28 170 153 154 181 137 145 123 12 79 141 172 168 185 157 253 149 223 141 251 283 300 167 144
195 203 162 184 205 185 222 229 260 279 315 322 344 98 202 221 272 97 110 144 310 344 101 166 168 144 143 187 47 69 68 91 326 165 178 219 156 182 235 235 236 180 157
221 216 195 161 142 203 266 258 216 226 215 182 225 260 314 312 205 204 190 186 201 166 227 242 220 162 163 175 182 111 133 111 81 357 307 172 176 204 279 260 303 219 242
234 162 192 192 165 178 186 244 255 285 314 306 297 276 235 290 317 343 3 23 8 277 4 337 280 181 173 176 199 140 151 152 141 106 311 299 181 190 196 268 318 303 182